Flag Weather past 2 weeks in Deggendorf, Bavaria, Germany

Now
44 °F

Passing clouds.


Feels Like: 44 °F
Forecast: 42 / 62 °F
Wind: 1 mph from Southeast

Location: Straubing

Current Time: Oct 31, 2014 at 10:46:18 PM

Latest Report: Oct 31, 2014 at 9:00 PM


Visibility: 2 mi

Pressure: 30.37 "Hg

Humidity: 99%

Dew point: 44 °F

Location of DeggendorfLocation

Historic Weather in Deggendorf — Graph

°F

Deggendorf temperature yesterday

Maximum temperature yesterday: 48 °F (at 3:00 PM)
Minimum temperature yesterday: 43 °F (at 6:00 AM)
Average temperature yesterday: 46 °F

Past Weeks' High & Low Weather Summary

 TemperatureHumidityPressure
High64 °F (Oct 19, 4:00 PM)100% (Oct 17, 6:00 AM)30.43 "Hg (Oct 17, 6:00 AM)
Low34 °F (Oct 28, 9:00 PM)71% (Oct 24, 4:00 PM)29.62 "Hg (Oct 21, 9:00 PM)
Average48 °F92%30.17 "Hg
* Reported Oct 16 10:00 PM — Oct 31 9:00 PM, Deggendorf, Weather by CustomWeather, © 2014

Note: Actual official high and low records may vary slightly from our data, if they occured in-between our weather recording intervals... More about our weather records

Advertising

Deggendorf weather history for previous 24 hours

 ConditionsComfort  
Time TempWeatherWind HumidityBarometerVisibility
9:00 PM
Oct 31
44 °FPassing clouds.1 mph99%30.37 "Hg2 mi
8:00 PM45 °FPassing clouds.2 mph97%30.36 "Hg1 mi
7:00 PM46 °FPassing clouds.2 mph96%30.36 "Hg6 mi
6:00 PM48 °FOvercast.2 mph93%30.36 "Hg9 mi
5:00 PM49 °FOvercast.2 mph88%30.35 "Hg13 mi
3:00 PM53 °FOvercast.2 mph80%30.35 "Hg25 mi
2:00 PM52 °FOvercast.2 mph82%30.36 "Hg17 mi
1:00 PM51 °FOvercast.3 mph83%30.37 "Hg8 mi
12:00 PM50 °FFog.3 mph90%30.38 "Hg4 mi
11:00 AM48 °FFog.3 mph94%30.40 "Hg2 mi
9:00 AM46 °FFog.2 mph97%30.37 "Hg3 mi
8:00 AM45 °FFog.3 mph99%30.37 "Hg1 mi
7:00 AM45 °FFog.2 mph99%30.38 "Hg2 mi
6:00 AM45 °FFog.2 mph98%30.37 "Hg1 mi
5:00 AM45 °FFog.2 mph97%30.37 "Hg2 mi
3:00 AM46 °FLow clouds.2 mph99%30.37 "Hg1 mi
2:00 AM45 °FLow clouds.2 mph99%30.38 "Hg1 mi
1:00 AM48 °FOvercast.3 mph97%30.37 "Hg2 mi
12:00 AM47 °FLow clouds.2 mph99%30.38 "Hg0 mi
11:00 PM
Oct 30
47 °FFog.1 mph98%30.37 "Hg1 mi
Weather by CustomWeather, © 2014

See weather overviewHow to use our weather pages